Location: Spruce Knob
(38.6995°N, 79.5330°W)
Time: 20:39:43
(UTC-04:00)

A-11 Canister half - Pass Details

Date: 30 January 2022
Orbit: 1513 x 1686 km, 47.2° (Epoch: 26 May)

Event Time Altitude Azimuth Distance (km) Brightness Sun altitude
Rises 14:07:49 0° 210° (SSW) 4,848 12.8 29.4°
Reaches altitude 10° 14:11:09 10° 205° (SSW) 3,840 12.8 29.1°
Maximum altitude 14:20:16 46° 136° (SE) 2,018 10.2 28.3°
Drops below altitude 10° 14:29:05 10° 66° (ENE) 3,726 10.7 27.4°
Sets 14:32:14 0° 61° (ENE) 4,694 11.1 27.1°
